Location: Unspecified
(0.0000°N, 0.0000°E)
Time: 13:04:09
(UTC+00:00)

P064 - Visible Passes

Search period start: 20 July 2025 00:00
Search period end: 30 July 2025 00:00
Orbit: 578 x 1701 km, 39.5° (Epoch: 19 July)

Date Brightness Start Highest point End Pass type
(mag) Time Alt. Az. Time Alt. Az. Time Alt. Az.
20 Jul 9.1 01:52:36 14° N 01:52:36 14° N 01:54:35 10° N visible
21 Jul 9.3 01:17:14 11° N 01:17:14 11° N 01:17:49 10° N visible
25 Jul 8.0 20:04:21 10° SSW 20:04:28 11° SSW 20:04:28 11° SSW visible
26 Jul 7.2 19:28:18 10° S 19:30:45 20° SSE 19:30:45 20° SSE visible
27 Jul 7.2 18:52:33 10° S 18:55:54 17° SE 18:57:20 15° ESE visible
27 Jul 7.7 20:43:49 10° SW 20:45:32 21° WSW 20:45:32 21° WSW visible
28 Jul 5.8 20:07:13 10° SW 20:12:32 85° SW 20:12:32 85° SW visible
29 Jul 5.6 19:30:43 10° SW 19:35:53 70° SE 19:39:59 24° ENE visible
29 Jul 8.3 21:25:56 10° W 21:28:17 18° WNW 21:28:17 18° WNW visible
